Total_Precipitation_Accumulation
0.07 0.06 0.06 0.05 0.04 0.03 0.03 0.03 0.03 0.03 0.03 0.04 0.04 0.05 0.05 0.05 0.06 0.08 0.09 0.09 0.09 0.08 0.08 0.09 0.10 0.11 0.12 0.12 0.15 0.20 0.24 0.30 0.32 0.15 0.10 0.15 0.23 0.28 0.32 0.33 0.30 0.27 0.23
0.07 0.06 0.05 0.04 0.03 0.03 0.03 0.03 0.04 0.05 0.05 0.06 0.06 0.06 0.06 0.06 0.06 0.09 0.09 0.08 0.09 0.09 0.09 0.10 0.09 0.09 0.11 0.12 0.15 0.18 0.20 0.25 0.33 0.25 0.17 0.20 0.26 0.34 0.41 0.42 0.38 0.33 0.30
0.06 0.04 0.03 0.03 0.03 0.04 0.05 0.05 0.06 0.06 0.07 0.07 0.07 0.07 0.06 0.07 0.08 0.10 0.09 0.08 0.08 0.08 0.09 0.11 0.10 0.11 0.12 0.14 0.18 0.19 0.21 0.24 0.33 0.40 0.31 0.27 0.31 0.40 0.51 0.50 0.41 0.39 0.32
0.04 0.03 0.03 0.04 0.06 0.07 0.07 0.07 0.07 0.07 0.08 0.07 0.06 0.06 0.07 0.08 0.07 0.06 0.05 0.05 0.06 0.06 0.07 0.10 0.11 0.14 0.17 0.19 0.19 0.21 0.26 0.30 0.32 0.36 0.34 0.33 0.37 0.43 0.53 0.58 0.48 0.41 0.34
0.05 0.06 0.07 0.07 0.07 0.08 0.08 0.09 0.09 0.08 0.07 0.06 0.06 0.06 0.08 0.07 0.03 0.02 0.02 0.02 0.04 0.05 0.07 0.09 0.10 0.13 0.18 0.20 0.22 0.26 0.35 0.40 0.37 0.36 0.36 0.37 0.40 0.47 0.49 0.50 0.47 0.38 0.27
0.09 0.10 0.09 0.08 0.09 0.10 0.09 0.09 0.08 0.08 0.07 0.05 0.05 0.04 0.04 0.03 0.01 0.01 0.00 0.01 0.03 0.07 0.10 0.09 0.06 0.07 0.10 0.14 0.21 0.28 0.35 0.41 0.44 0.46 0.43 0.36 0.34 0.38 0.42 0.46 0.44 0.40 0.31
0.13 0.12 0.11 0.09 0.08 0.08 0.07 0.08 0.07 0.06 0.04 0.03 0.03 0.03 0.03 0.02 0.00 0.00 0.00 0.01 0.05 0.09 0.12 0.09 0.06 0.04 0.08 0.12 0.16 0.20 0.26 0.36 0.48 0.54 0.51 0.37 0.37 0.43 0.50 0.53 0.41 0.40 0.39
0.12 0.10 0.09 0.07 0.06 0.06 0.06 0.05 0.04 0.03 0.03 0.03 0.02 0.02 0.02 0.01 0.00 0.00 0.00 0.01 0.05 0.07 0.08 0.08 0.08 0.09 0.10 0.13 0.15 0.20 0.30 0.37 0.43 0.45 0.49 0.49 0.53 0.51 0.45 0.43 0.39 0.42 0.38
0.08 0.07 0.05 0.04 0.03 0.03 0.02 0.02 0.02 0.03 0.03 0.02 0.02 0.02 0.02 0.02 0.00 0.00 0.00 0.01 0.02 0.03 0.04 0.06 0.08 0.11 0.12 0.19 0.26 0.35 0.51 0.65 0.65 0.64 0.67 0.76 0.79 0.63 0.44 0.37 0.41 0.42 0.34
0.05 0.04 0.02 0.01 0.01 0.01 0.02 0.02 0.03 0.03 0.02 0.01 0.01 0.02 0.03 0.03 0.01 0.00 0.00 0.01 0.02 0.02 0.03 0.06 0.11 0.17 0.18 0.29 0.37 0.50 0.69 0.82 0.72 0.65 0.69 0.80 0.72 0.64 0.61 0.53 0.47 0.39 0.30
0.02 0.01 0.01 0.01 0.01 0.01 0.01 0.02 0.02 0.02 0.02 0.02 0.02 0.02 0.03 0.03 0.02 0.00 0.00 0.01 0.03 0.04 0.07 0.12 0.17 0.25 0.25 0.37 0.53 0.64 0.86 0.94 0.78 0.61 0.55 0.54 0.54 0.53 0.51 0.52 0.43 0.32 0.26
0.00 0.01 0.01 0.00 0.00 0.00 0.01 0.01 0.02 0.02 0.01 0.01 0.01 0.02 0.02 0.03 0.02 0.01 0.00 0.01 0.03 0.06 0.14 0.23 0.27 0.30 0.33 0.50 0.63 0.81 1.06 1.11 0.80 0.54 0.39 0.34 0.36 0.40 0.42 0.37 0.29 0.23 0.21
0.01 0.01 0.01 0.00 0.00 0.00 0.01 0.01 0.01 0.01 0.01 0.01 0.01 0.02 0.02 0.02 0.02 0.01 0.01 0.01 0.03 0.07 0.18 0.35 0.37 0.35 0.50 0.71 0.90 1.04 1.15 1.05 0.75 0.49 0.35 0.30 0.27 0.28 0.30 0.31 0.27 0.22 0.19
0.00 0.01 0.01 0.00 0.00 0.00 0.00 0.00 0.01 0.01 0.01 0.02 0.03 0.03 0.03 0.03 0.03 0.03 0.03 0.04 0.06 0.08 0.16 0.31 0.43 0.48 0.64 0.87 1.03 1.09 1.08 0.99 0.76 0.51 0.38 0.33 0.29 0.28 0.29 0.27 0.25 0.22 0.22
0.00 0.01 0.01 0.00 0.00 0.00 0.01 0.00 0.01 0.01 0.01 0.02 0.04 0.05 0.06 0.05 0.04 0.05 0.07 0.08 0.09 0.13 0.17 0.22 0.30 0.42 0.60 0.78 0.89 0.92 0.87 0.82 0.72 0.54 0.42 0.38 0.35 0.33 0.32 0.28 0.24 0.21 0.22
0.01 0.01 0.00 0.00 0.00 0.00 0.01 0.01 0.00 0.00 0.01 0.01 0.03 0.05 0.05 0.05 0.03 0.03 0.05 0.08 0.12 0.16 0.19 0.27 0.39 0.52 0.66 0.76 0.82 0.80 0.74 0.68 0.60 0.50 0.43 0.39 0.36 0.33 0.32 0.27 0.21 0.19 0.21
0.00 0.00 0.00 0.00 0.00 0.00 0.01 0.02 0.03 0.02 0.02 0.02 0.01 0.03 0.03 0.03 0.02 0.02 0.04 0.07 0.10 0.14 0.19 0.31 0.45 0.58 0.69 0.73 0.73 0.70 0.66 0.60 0.52 0.44 0.39 0.36 0.32 0.29 0.26 0.22 0.19 0.18 0.17
0.00 0.00 0.00 0.00 0.00 0.00 0.01 0.02 0.03 0.04 0.05 0.05 0.03 0.02 0.02 0.03 0.03 0.03 0.04 0.05 0.07 0.13 0.23 0.36 0.46 0.53 0.61 0.66 0.64 0.63 0.60 0.53 0.45 0.40 0.38 0.35 0.29 0.25 0.21 0.18 0.16 0.14 0.12
0.00 0.00 0.00 0.00 0.00 0.00 0.01 0.01 0.02 0.03 0.03 0.04 0.04 0.03 0.03 0.04 0.04 0.06 0.07 0.07 0.13 0.20 0.28 0.36 0.42 0.45 0.49 0.53 0.53 0.52 0.49 0.46 0.40 0.36 0.34 0.34 0.32 0.25 0.19 0.14 0.11 0.10 0.08
0.00 0.00 0.00 0.00 0.00 0.00 0.01 0.01 0.01 0.02 0.03 0.04 0.05 0.05 0.05 0.07 0.08 0.09 0.09 0.10 0.15 0.21 0.28 0.35 0.38 0.37 0.36 0.38 0.38 0.36 0.35 0.35 0.33 0.32 0.31 0.30 0.28 0.22 0.16 0.11 0.09 0.07 0.06
0.00 0.00 0.00 0.00 0.00 0.00 0.00 0.01 0.01 0.01 0.02 0.04 0.05 0.06 0.10 0.12 0.15 0.16 0.16 0.17 0.21 0.24 0.26 0.29 0.31 0.32 0.30 0.28 0.28 0.28 0.29 0.29 0.28 0.28 0.27 0.26 0.22 0.18 0.13 0.09 0.06 0.04 0.03
0.00 0.00 0.00 0.00 0.00 0.00 0.00 0.00 0.00 0.01 0.01 0.02 0.03 0.05 0.11 0.12 0.16 0.20 0.22 0.24 0.26 0.27 0.26 0.26 0.26 0.28 0.29 0.28 0.27 0.26 0.26 0.27 0.27 0.26 0.25 0.22 0.19 0.15 0.11 0.07 0.04 0.03 0.02
0.00 0.00 0.00 0.00 0.00 0.00 0.00 0.00 0.00 0.00 0.01 0.01 0.02 0.03 0.06 0.11 0.18 0.25 0.29 0.30 0.29 0.28 0.24 0.22 0.24 0.27 0.27 0.25 0.24 0.24 0.23 0.24 0.25 0.25 0.24 0.20 0.16 0.12 0.09 0.06 0.04 0.02 0.01
0.00 0.00 0.00 0.00 0.00 0.00 0.00 0.00 0.00 0.00 0.00 0.01 0.02 0.03 0.06 0.11 0.17 0.25 0.31 0.34 0.35 0.35 0.32 0.28 0.26 0.27 0.25 0.23 0.23 0.22 0.18 0.19 0.21 0.23 0.22 0.17 0.12 0.09 0.06 0.04 0.03 0.02 0.01
0.00 0.00 0.00 0.00 0.00 0.00 0.00 0.00 0.00 0.00 0.00 0.00 0.01 0.02 0.03 0.06 0.11 0.16 0.23 0.29 0.34 0.38 0.39 0.37 0.34 0.30 0.25 0.20 0.17 0.14 0.16 0.19 0.17 0.16 0.19 0.15 0.09 0.07 0.05 0.04 0.02 0.02 0.01
0.00 0.00 0.00 0.00 0.00 0.00 0.00 0.00 0.00 0.00 0.00 0.00 0.00 0.01 0.02 0.05 0.07 0.11 0.14 0.18 0.22 0.28 0.34 0.39 0.40 0.32 0.24 0.19 0.17 0.16 0.14 0.10 0.07 0.06 0.15 0.15 0.10 0.07 0.05 0.03 0.02 0.01 0.01